Weather in Verkhniye Taltsy

Russia / Republic of Buryatia     52°02′22″N   108°55′09″E
temp.,
°C
wind,
m/s
gust,
m/s
humid.,
%
clouds,
%
prec.,
mm/h
press.,
hPa
HPBL,
m
15 april, thu
thu1523:00−4wsw1172100 0.0 101712
02:00−6sw21805 0.0 101611
05:00−7wsw22875 0.0 101614
08:00−3w24635 0.0 1015410
11:00+3wnw353225 0.0 10121870
14:00+5nw4625100 0.0 10112757
17:00+3wnw564576 0.4 10131597
20:00−2w2465100 0.4 101561
16 april, fri
fri1623:00−3w228499 0.0 101825
02:00−5w39905 0.0 1021281
05:00−7wsw22945 0.0 102434
08:00−2w366652 0.0 1024579
11:00+3w453537 0.0 10221542
14:00+5w563034 0.0 10211568
17:00+7w57275 0.0 10181510
20:00+1wsw22465 0.0 101927
17 april, sat
sat1723:00−1sw11547 0.0 101912
02:00−2sse115768 0.0 101712
05:00−3s11568 0.0 101616
08:00+3ssw113828 0.0 1014239
11:00+10wsw352710 0.0 10091046
14:00+14w45235 0.0 10061696
17:00+15w46215 0.0 10052032
20:00+7wnw11455 0.0 100711
18 april, sun
sun1823:00+4ssw11555 0.0 100810
02:00+2w116640 0.0 100911
05:00−1w2286100 0.0 101122
08:00+2wnw236982 0.0 1012387
11:00+7wnw3446100 0.0 10091006
14:00+9wnw4545100 0.0 10081470
17:00+8nw683929 0.0 10111472
20:00+1nw495511 0.0 1017482
19 april, mon
mon1923:00−2w227287 0.0 102119
02:00−4wsw21885 0.0 102311
05:00−5wsw11945 0.0 102410
08:000wnw127228 0.0 1023365
11:00+7sw022480 0.0 10201173
14:00+10ssw2421100 0.0 10152120
17:00+11sw252612 0.0 10121944
20:00+6ese22390 0.0 101310